Timestamp, Local Timestamp, ID, PM25, PM10, Co2, Temperature, Relative Humidity, Monitor ID, O3
2023-04-14T14:42:58Z,04/14/23 10:42,10262046,2.0940000000000003,0.006,368,20.4,43.0,83,0.0
2023-04-14T14:43:58Z,04/14/23 10:43,10262056,2.199,0.006,370,20.5,42.8,83,0.0
2023-04-14T14:44:58Z,04/14/23 10:44,10262066,2.08,0.002,372,20.5,42.5,83,0.0
2023-04-14T14:45:58Z,04/14/23 10:45,10262076,2.002,0.002,358,20.5,42.4,83,0.0
2023-04-14T14:46:58Z,04/14/23 10:46,10262086,2.05,0.008,368,20.5,42.4,83,0.0
2023-04-14T14:47:58Z,04/14/23 10:47,10262096,2.205,0.006,369,20.6,42.5,83,0.0
2023-04-14T14:48:58Z,04/14/23 10:48,10262107,2.231,0.004,372,20.7,42.0,83,0.0
2023-04-14T14:49:58Z,04/14/23 10:49,10262117,2.185,0.002,367,20.7,41.6,83,0.0
2023-04-14T14:50:58Z,04/14/23 10:50,10262128,2.331,0.012,365,20.7,41.9,83,0.0
2023-04-14T14:51:58Z,04/14/23 10:51,10262139,2.287,0.008,362,20.8,41.5,83,0.0
2023-04-14T14:52:58Z,04/14/23 10:52,10262150,2.247,0.006,365,20.9,41.5,83,0.0
2023-04-14T14:53:58Z,04/14/23 10:53,10262160,2.09,0.01,368,20.9,41.4,83,0.0
2023-04-14T14:54:58Z,04/14/23 10:54,10262170,1.775,0.004,362,21.0,41.3,83,0.0
2023-04-14T14:55:58Z,04/14/23 10:55,10262180,2.181,0.006,367,21.0,41.1,83,0.0
2023-04-14T14:56:58Z,04/14/23 10:56,10262190,2.231,0.01,368,21.1,41.1,83,0.0
2023-04-14T14:57:58Z,04/14/23 10:57,10262200,1.9469999999999998,0.006,361,21.1,41.1,83,0.0
2023-04-14T14:58:58Z,04/14/23 10:58,10262210,2.166,0.006,379,21.1,41.2,83,0.0
2023-04-14T14:59:58Z,04/14/23 10:59,10262220,1.845,0.006,365,21.1,41.5,83,0.0
2023-04-14T15:00:58Z,04/14/23 11:00,10262230,1.799,0.004,361,21.2,41.2,83,0.0
2023-04-14T15:01:58Z,04/14/23 11:01,10262240,2.054,0.004,365,21.2,41.1,83,0.0
2023-04-14T15:02:58Z,04/14/23 11:02,10262251,1.888,0.008,368,21.3,40.9,83,0.0
2023-04-14T15:03:58Z,04/14/23 11:03,10262262,2.199,0.012,356,21.3,41.0,83,0.0
2023-04-14T15:04:58Z,04/14/23 11:04,10262273,1.986,0.006,365,21.3,41.1,83,0.0
2023-04-14T15:05:58Z,04/14/23 11:05,10262284,2.081,0.004,361,21.4,41.1,83,0.0
2023-04-14T15:06:58Z,04/14/23 11:06,10262295,2.0829999999999997,0.002,368,21.5,41.4,83,0.0
2023-04-14T15:07:58Z,04/14/23 11:07,10262306,2.027,0.01,361,21.5,41.6,83,0.0
2023-04-14T15:08:58Z,04/14/23 11:08,10262317,1.829,0.004,363,21.6,41.3,83,0.0
2023-04-14T15:09:58Z,04/14/23 11:09,10262328,1.988,0.01,357,21.6,41.2,83,0.0
2023-04-14T15:10:58Z,04/14/23 11:10,10262339,2.191,0.008,356,21.7,41.0,83,0.0
2023-04-14T15:11:58Z,04/14/23 11:11,10262350,2.052,0.006,363,21.7,40.7,83,0.0
2023-04-14T15:12:58Z,04/14/23 11:12,10262361,2.1870000000000003,0.006,367,21.7,40.4,83,0.0
2023-04-14T15:13:58Z,04/14/23 11:13,10262372,2.051,0.004,357,21.7,40.0,83,0.0
2023-04-14T15:14:58Z,04/14/23 11:14,10262383,2.0309999999999997,0.006,358,21.8,40.1,83,0.0
2023-04-14T15:15:58Z,04/14/23 11:15,10262393,2.077,0.008,357,21.8,39.6,83,0.0
2023-04-14T15:16:58Z,04/14/23 11:16,10262404,1.825,0.008,357,21.9,39.7,83,0.0
2023-04-14T15:17:58Z,04/14/23 11:17,10262415,1.8350000000000002,0.004,354,21.9,39.6,83,0.0
2023-04-14T15:18:58Z,04/14/23 11:18,10262426,1.985,0.004,368,22.0,39.5,83,0.0
2023-04-14T15:19:58Z,04/14/23 11:19,10262437,1.8760000000000001,0.002,362,22.1,40.0,83,0.0
2023-04-14T15:20:58Z,04/14/23 11:20,10262448,1.97,0.004,353,22.1,39.9,83,0.0
2023-04-14T15:21:58Z,04/14/23 11:21,10262459,2.069,0.004,361,22.2,39.5,83,0.0
2023-04-14T15:22:58Z,04/14/23 11:22,10262470,1.9170000000000003,0.006,356,22.2,39.4,83,0.0
2023-04-14T15:23:58Z,04/14/23 11:23,10262480,2.045,0.004,360,22.3,39.3,83,0.0
2023-04-14T15:24:58Z,04/14/23 11:24,10262490,1.8690000000000002,0.006,364,22.3,39.2,83,0.0
2023-04-14T15:25:58Z,04/14/23 11:25,10262501,1.895,0.01,360,22.3,39.0,83,0.0
2023-04-14T15:26:58Z,04/14/23 11:26,10262512,2.186,0.004,356,22.3,38.9,83,0.0
2023-04-14T15:27:58Z,04/14/23 11:27,10262523,1.6179999999999999,0.008,361,22.3,38.6,83,0.0
2023-04-14T15:28:58Z,04/14/23 11:28,10262534,1.707,0.006,367,22.3,38.6,83,0.0
2023-04-14T15:29:58Z,04/14/23 11:29,10262545,1.673,0.004,354,22.3,38.6,83,0.0
2023-04-14T15:30:58Z,04/14/23 11:30,10262556,1.7420000000000002,0.004,356,22.3,38.7,83,0.0
2023-04-14T15:31:58Z,04/14/23 11:31,10262567,1.938,0.006,363,22.4,38.9,83,0.0
2023-04-14T15:32:58Z,04/14/23 11:32,10262578,1.621,0.002,362,22.5,39.0,83,0.0
2023-04-14T15:33:58Z,04/14/23 11:33,10262589,1.7,0.004,352,22.5,38.4,83,0.0
2023-04-14T15:34:58Z,04/14/23 11:34,10262600,1.848,0.006,355,22.6,38.2,83,0.0
2023-04-14T15:35:58Z,04/14/23 11:35,10262611,1.6469999999999998,0.012,360,22.6,38.1,83,0.0
2023-04-14T15:36:58Z,04/14/23 11:36,10262622,1.671,0.0,356,22.7,38.0,83,0.0
2023-04-14T15:37:58Z,04/14/23 11:37,10262633,1.638,0.006,365,22.7,37.8,83,0.0
2023-04-14T15:38:58Z,04/14/23 11:38,10262644,1.797,0.006,356,22.8,37.3,83,0.0
2023-04-14T15:39:58Z,04/14/23 11:39,10262655,1.73,0.01,356,22.8,37.4,83,0.0
2023-04-14T15:40:58Z,04/14/23 11:40,10262666,1.936,0.002,361,22.9,38.2,83,0.0
2023-04-14T15:41:58Z,04/14/23 11:41,10262677,1.875,0.006,356,22.9,37.5,83,0.0
2023-04-14T15:42:58Z,04/14/23 11:42,10262688,1.7890000000000001,0.002,358,22.9,37.0,83,0.0
2023-04-14T15:43:58Z,04/14/23 11:43,10262699,1.5230000000000001,0.004,355,22.9,37.0,83,0.0
2023-04-14T15:44:58Z,04/14/23 11:44,10262710,1.816,0.002,348,22.9,37.6,83,0.0
2023-04-14T15:45:58Z,04/14/23 11:45,10262721,1.6019999999999999,0.0,353,23.0,37.7,83,0.0
2023-04-14T15:46:58Z,04/14/23 11:46,10262732,1.752,0.0,356,23.0,37.1,83,0.0
2023-04-14T15:47:58Z,04/14/23 11:47,10262742,1.904,0.004,350,23.1,37.0,83,0.0
2023-04-14T15:48:58Z,04/14/23 11:48,10262752,1.884,0.006,363,23.2,36.8,83,0.0
2023-04-14T15:49:58Z,04/14/23 11:49,10262762,1.5539999999999998,0.0,352,23.2,36.5,83,0.0
2023-04-14T15:50:58Z,04/14/23 11:50,10262771,1.799,0.004,348,23.3,36.1,83,0.0
2023-04-14T15:51:58Z,04/14/23 11:51,10262780,1.597,0.008,352,23.3,36.3,83,0.0
2023-04-14T15:52:58Z,04/14/23 11:52,10262789,1.8329999999999997,0.006,354,23.4,36.2,83,0.0
2023-04-14T15:53:58Z,04/14/23 11:53,10262798,1.9260000000000002,0.006,359,23.4,36.1,83,0.0
2023-04-14T15:54:58Z,04/14/23 11:54,10262808,1.645,0.008,359,23.4,35.9,83,0.0
2023-04-14T15:55:58Z,04/14/23 11:55,10262818,1.7739999999999998,0.002,351,23.5,35.9,83,0.0
2023-04-14T15:56:58Z,04/14/23 11:56,10262828,1.56,0.006,366,23.6,35.9,83,0.0
2023-04-14T15:57:58Z,04/14/23 11:57,10262838,1.552,0.008,358,23.6,35.7,83,0.0
2023-04-14T15:58:58Z,04/14/23 11:58,10262848,1.971,0.006,349,23.6,35.5,83,0.0
2023-04-14T15:59:58Z,04/14/23 11:59,10262858,1.584,0.006,356,23.6,35.4,83,0.0
2023-04-14T16:00:58Z,04/14/23 12:00,10262869,1.511,0.01,359,23.7,35.5,83,0.0
2023-04-14T16:01:58Z,04/14/23 12:01,10262879,1.494,0.006,353,23.8,35.3,83,0.0
2023-04-14T16:02:58Z,04/14/23 12:02,10262889,1.8679999999999999,0.004,352,23.8,35.0,83,0.0
2023-04-14T16:03:58Z,04/14/23 12:03,10262899,1.544,0.004,362,23.9,35.1,83,0.0
2023-04-14T16:04:58Z,04/14/23 12:04,10262909,1.702,0.002,359,23.9,35.1,83,0.0
2023-04-14T16:05:58Z,04/14/23 12:05,10262919,1.734,0.006,361,24.0,35.1,83,0.0
2023-04-14T16:06:58Z,04/14/23 12:06,10262929,1.828,0.002,353,24.0,35.0,83,0.0
2023-04-14T16:07:58Z,04/14/23 12:07,10262939,1.734,0.0,347,24.1,34.5,83,0.0
2023-04-14T16:08:58Z,04/14/23 12:08,10262949,1.552,0.002,352,24.1,34.5,83,0.0
2023-04-14T16:09:58Z,04/14/23 12:09,10262959,1.658,0.004,354,24.2,34.3,83,0.0
2023-04-14T16:10:58Z,04/14/23 12:10,10262969,1.6620000000000001,0.006,349,24.2,34.3,83,0.0
2023-04-14T16:11:58Z,04/14/23 12:11,10262978,1.691,0.004,353,24.2,34.3,83,0.0
2023-04-14T16:12:58Z,04/14/23 12:12,10262987,1.42,0.002,351,24.2,34.3,83,0.0
2023-04-14T16:13:58Z,04/14/23 12:13,10262997,1.643,0.004,348,24.2,34.1,83,0.0
2023-04-14T16:14:58Z,04/14/23 12:14,10263007,1.546,0.002,357,24.3,34.1,83,0.0
2023-04-14T16:15:58Z,04/14/23 12:15,10263017,1.543,0.002,346,24.3,34.5,83,0.0
2023-04-14T16:16:58Z,04/14/23 12:16,10263027,1.6489999999999998,0.01,355,24.4,34.3,83,0.0
2023-04-14T16:17:58Z,04/14/23 12:17,10263038,1.637,0.004,346,24.5,34.5,83,0.0
2023-04-14T16:18:58Z,04/14/23 12:18,10263049,1.6510000000000002,0.002,355,24.5,34.1,83,0.0
2023-04-14T16:19:58Z,04/14/23 12:19,10263060,1.748,0.01,354,24.6,34.0,83,0.0
2023-04-14T16:20:58Z,04/14/23 12:20,10263071,1.6649999999999998,0.006,354,24.6,33.9,83,0.0
2023-04-14T16:21:58Z,04/14/23 12:21,10263082,1.723,0.002,354,24.6,34.2,83,0.0
2023-04-14T16:22:58Z,04/14/23 12:22,10263093,1.7399999999999998,0.006,357,24.7,34.4,83,0.0
2023-04-14T16:23:58Z,04/14/23 12:23,10263104,1.848,0.006,355,24.7,34.4,83,0.0
2023-04-14T16:24:58Z,04/14/23 12:24,10263115,1.829,0.004,346,24.8,34.1,83,0.0
2023-04-14T16:25:58Z,04/14/23 12:25,10263126,1.759,0.002,345,24.8,34.5,83,0.0
2023-04-14T16:26:58Z,04/14/23 12:26,10263137,1.7690000000000001,0.004,354,24.8,34.2,83,0.0
2023-04-14T16:27:58Z,04/14/23 12:27,10263148,1.8719999999999999,0.006,350,24.8,34.0,83,0.0
2023-04-14T16:28:58Z,04/14/23 12:28,10263158,1.607,0.004,352,24.8,33.7,83,0.0
2023-04-14T16:29:58Z,04/14/23 12:29,10263168,1.906,0.008,355,24.9,33.5,83,0.0
2023-04-14T16:30:58Z,04/14/23 12:30,10263179,1.986,0.006,359,24.9,33.0,83,0.0
2023-04-14T16:31:58Z,04/14/23 12:31,10263189,1.732,0.002,358,25.0,33.0,83,0.0
2023-04-14T16:32:58Z,04/14/23 12:32,10263199,1.7530000000000001,0.002,354,25.0,33.1,83,0.0
2023-04-14T16:33:58Z,04/14/23 12:33,10263209,1.8820000000000001,0.008,359,25.1,32.9,83,0.0
2023-04-14T16:34:58Z,04/14/23 12:34,10263219,1.55,0.004,347,25.1,33.0,83,0.0
2023-04-14T16:35:58Z,04/14/23 12:35,10263229,1.75,0.008,352,25.1,33.4,83,0.0
2023-04-14T16:36:58Z,04/14/23 12:36,10263239,1.514,0.004,350,25.2,33.9,83,0.0
2023-04-14T16:37:58Z,04/14/23 12:37,10263249,1.524,0.0,360,25.2,33.4,83,0.0
2023-04-14T16:38:58Z,04/14/23 12:38,10263259,1.8850000000000002,0.008,355,25.2,33.3,83,0.0
2023-04-14T16:39:58Z,04/14/23 12:39,10263269,1.6640000000000001,0.004,360,25.3,34.1,83,0.0
2023-04-14T16:40:58Z,04/14/23 12:40,10263279,1.7739999999999998,0.002,355,25.3,34.3,83,0.0
2023-04-14T16:41:58Z,04/14/23 12:41,10263289,1.685,0.004,350,25.4,34.2,83,0.0
2023-04-14T16:42:59Z,04/14/23 12:42,10263299,1.557,0.006,358,25.4,34.6,83,0.0
2023-04-14T16:43:58Z,04/14/23 12:43,10263309,1.641,0.006,352,25.5,34.4,83,0.0
2023-04-14T16:44:58Z,04/14/23 12:44,10263319,1.786,0.008,356,25.5,34.2,83,0.0
2023-04-14T16:45:58Z,04/14/23 12:45,10263329,2.038,0.002,360,25.5,33.0,83,0.0
2023-04-14T16:46:58Z,04/14/23 12:46,10263339,2.097,0.012,349,25.5,32.6,83,0.0
2023-04-14T16:47:58Z,04/14/23 12:47,10263349,1.909,0.002,361,25.5,32.4,83,0.0
2023-04-14T16:48:58Z,04/14/23 12:48,10263359,1.923,0.006,367,25.6,32.2,83,0.0
2023-04-14T16:49:58Z,04/14/23 12:49,10263369,1.988,0.01,358,25.6,31.8,83,0.0
2023-04-14T16:50:59Z,04/14/23 12:50,10263379,1.842,0.0,355,25.6,32.2,83,0.0
2023-04-14T16:51:59Z,04/14/23 12:51,10263389,1.813,0.008,358,25.7,33.2,83,0.0
2023-04-14T16:52:58Z,04/14/23 12:52,10263399,1.9280000000000002,0.01,357,25.7,32.9,83,0.0
2023-04-14T16:53:58Z,04/14/23 12:53,10263409,1.845,0.0,362,25.8,32.6,83,0.0
2023-04-14T16:54:58Z,04/14/23 12:54,10263419,2.035,0.002,368,25.8,32.0,83,0.0
2023-04-14T16:55:58Z,04/14/23 12:55,10263429,1.759,0.008,361,25.9,32.6,83,0.0
2023-04-14T16:56:58Z,04/14/23 12:56,10263439,1.7550000000000001,0.006,351,25.9,33.0,83,0.0
2023-04-14T16:57:58Z,04/14/23 12:57,10263449,1.8350000000000002,0.004,358,26.0,33.1,83,0.0
2023-04-14T16:58:59Z,04/14/23 12:58,10263459,1.736,0.004,361,26.0,33.4,83,0.0
2023-04-14T16:59:58Z,04/14/23 12:59,10263469,1.768,0.008,358,26.1,33.1,83,0.0
2023-04-14T17:00:58Z,04/14/23 13:00,10263479,2.008,0.002,366,26.1,32.6,83,0.0
2023-04-14T17:01:58Z,04/14/23 13:01,10263489,2.1,0.006,358,26.1,32.1,83,0.0
2023-04-14T17:02:58Z,04/14/23 13:02,10263499,1.802,0.004,355,26.2,31.8,83,0.0
2023-04-14T17:03:58Z,04/14/23 13:03,10263509,2.011,0.014000000000000002,362,26.2,31.6,83,0.0
2023-04-14T17:04:58Z,04/14/23 13:04,10263519,2.1149999999999998,0.0,363,26.2,31.6,83,0.0
2023-04-14T17:05:59Z,04/14/23 13:05,10263529,2.037,0.006,362,26.2,31.3,83,0.0
2023-04-14T17:06:59Z,04/14/23 13:06,10263539,2.032,0.008,356,26.2,32.0,83,0.0
2023-04-14T17:07:59Z,04/14/23 13:07,10263549,2.197,0.008,358,26.2,32.4,83,0.0
2023-04-14T17:08:59Z,04/14/23 13:08,10263559,2.133,0.006,362,26.2,32.2,83,0.0
2023-04-14T17:09:59Z,04/14/23 13:09,10263569,1.8649999999999998,0.004,362,26.2,32.5,83,0.0
2023-04-14T17:10:59Z,04/14/23 13:10,10263579,1.7429999999999999,0.006,366,26.3,32.5,83,0.0
2023-04-14T17:11:59Z,04/14/23 13:11,10263589,1.973,0.004,351,26.3,32.7,83,0.0
2023-04-14T17:12:59Z,04/14/23 13:12,10263599,2.08,0.008,363,26.4,32.5,83,0.0
2023-04-14T17:13:59Z,04/14/23 13:13,10263609,2.0829999999999997,0.008,363,26.5,32.5,83,0.0
2023-04-14T17:14:59Z,04/14/23 13:14,10263619,2.1350000000000002,0.004,364,26.6,32.4,83,0.0
2023-04-14T17:15:59Z,04/14/23 13:15,10263629,2.143,0.008,361,26.6,32.9,83,0.0
2023-04-14T17:16:59Z,04/14/23 13:16,10263639,2.1260000000000003,0.01,356,26.7,32.5,83,0.0
2023-04-14T17:17:59Z,04/14/23 13:17,10263649,2.052,0.006,359,26.7,32.1,83,0.0
2023-04-14T17:18:59Z,04/14/23 13:18,10263659,2.116,0.002,366,26.7,31.4,83,0.0
2023-04-14T17:19:59Z,04/14/23 13:19,10263669,1.9620000000000002,0.0,368,26.7,31.6,83,0.0
2023-04-14T17:20:59Z,04/14/23 13:20,10263679,1.9829999999999999,0.0,365,26.7,32.0,83,0.0
2023-04-14T17:21:59Z,04/14/23 13:21,10263689,1.8579999999999999,0.002,356,26.8,32.9,83,0.0
2023-04-14T17:22:59Z,04/14/23 13:22,10263699,2.058,0.0,349,26.8,33.4,83,0.0
2023-04-14T17:23:59Z,04/14/23 13:23,10263709,1.927,0.002,359,26.8,32.3,83,0.0
2023-04-14T17:24:59Z,04/14/23 13:24,10263719,2.038,0.002,364,26.8,31.3,83,0.0
2023-04-14T17:25:59Z,04/14/23 13:25,10263729,2.0010000000000003,0.006,355,26.9,31.1,83,0.0
2023-04-14T17:26:59Z,04/14/23 13:26,10263739,2.191,0.002,360,26.9,31.0,83,0.0
2023-04-14T17:27:59Z,04/14/23 13:27,10263749,2.066,0.004,360,26.9,31.1,83,0.0
2023-04-14T17:28:59Z,04/14/23 13:28,10263759,2.133,0.006,365,26.9,30.7,83,0.0
2023-04-14T17:29:59Z,04/14/23 13:29,10263769,1.92,0.012,355,27.0,30.6,83,0.0
2023-04-14T17:30:59Z,04/14/23 13:30,10263779,1.85,0.004,359,27.0,30.5,83,0.0
2023-04-14T17:31:59Z,04/14/23 13:31,10263789,2.089,0.008,361,27.0,30.1,83,0.0
2023-04-14T17:32:59Z,04/14/23 13:32,10263799,2.035,0.002,361,27.1,30.1,83,0.0
2023-04-14T17:33:59Z,04/14/23 13:33,10263809,1.935,0.006,365,27.1,30.6,83,0.0
2023-04-14T17:34:59Z,04/14/23 13:34,10263819,2.129,0.004,358,27.2,30.9,83,0.0
2023-04-14T17:35:59Z,04/14/23 13:35,10263829,1.948,0.002,358,27.3,31.5,83,0.0
2023-04-14T17:36:59Z,04/14/23 13:36,10263839,1.799,0.004,359,27.4,31.5,83,0.0
2023-04-14T17:37:59Z,04/14/23 13:37,10263849,1.8329999999999997,0.006,351,27.4,31.7,83,0.0
2023-04-14T17:38:59Z,04/14/23 13:38,10263859,2.0989999999999998,0.004,356,27.5,31.4,83,0.0
2023-04-14T17:39:59Z,04/14/23 13:39,10263869,1.9940000000000002,0.01,370,27.6,31.2,83,0.0
2023-04-14T17:40:59Z,04/14/23 13:40,10263879,1.9100000000000001,0.004,352,27.6,31.1,83,0.0
2023-04-14T17:41:59Z,04/14/23 13:41,10263889,1.988,0.01,364,27.7,30.7,83,0.0
2023-04-14T17:42:59Z,04/14/23 13:42,10263899,1.9140000000000001,0.006,357,27.8,30.5,83,0.0
2023-04-14T17:43:59Z,04/14/23 13:43,10263910,2.0149999999999997,0.01,374,27.9,29.9,83,0.0
2023-04-14T17:44:59Z,04/14/23 13:44,10263921,2.234,0.004,371,27.9,30.1,83,0.0
2023-04-14T17:45:59Z,04/14/23 13:45,10263932,2.05,0.008,369,28.0,30.7,83,0.0
2023-04-14T17:46:59Z,04/14/23 13:46,10263943,2.107,0.014000000000000002,361,28.0,30.4,83,0.0
2023-04-14T17:47:59Z,04/14/23 13:47,10263954,1.9760000000000002,0.004,361,28.1,30.0,83,0.0
2023-04-14T17:48:59Z,04/14/23 13:48,10263965,1.987,0.002,356,28.2,30.5,83,0.0
2023-04-14T17:49:59Z,04/14/23 13:49,10263976,1.991,0.01,369,28.3,31.0,83,0.0
2023-04-14T17:50:59Z,04/14/23 13:50,10263987,2.052,0.006,360,28.4,30.8,83,0.0
2023-04-14T17:51:59Z,04/14/23 13:51,10263998,2.082,0.006,355,28.5,30.6,83,0.0
2023-04-14T17:52:59Z,04/14/23 13:52,10264009,2.112,0.006,351,28.7,30.0,83,0.0
2023-04-14T17:53:59Z,04/14/23 13:53,10264020,1.907,0.004,360,28.8,30.6,83,0.0
2023-04-14T17:54:59Z,04/14/23 13:54,10264031,2.1559999999999997,0.004,357,29.1,30.7,83,0.0
2023-04-14T17:55:59Z,04/14/23 13:55,10264042,1.823,0.004,351,29.3,30.8,83,0.0
2023-04-14T17:56:59Z,04/14/23 13:56,10264053,2.1550000000000002,0.008,356,29.5,30.4,83,0.0
2023-04-14T17:57:59Z,04/14/23 13:57,10264064,2.2809999999999997,0.008,354,29.8,30.4,83,0.0
2023-04-14T17:58:59Z,04/14/23 13:58,10264075,1.8679999999999999,0.01,353,30.0,30.1,83,0.0
2023-04-14T17:59:59Z,04/14/23 13:59,10264086,1.9940000000000002,0.01,358,30.3,30.1,83,0.0
2023-04-14T18:00:59Z,04/14/23 14:00,10264097,1.784,0.004,367,30.6,29.5,83,0.0
2023-04-14T18:01:59Z,04/14/23 14:01,10264108,1.8780000000000001,0.006,357,30.8,29.4,83,0.0
2023-04-14T18:02:59Z,04/14/23 14:02,10264119,1.7449999999999999,0.004,365,31.2,29.5,83,0.0
2023-04-14T18:03:59Z,04/14/23 14:03,10264130,1.855,0.002,364,31.4,29.7,83,0.0
2023-04-14T18:04:59Z,04/14/23 14:04,10264141,1.936,0.002,361,31.7,29.5,83,0.0
2023-04-14T18:05:59Z,04/14/23 14:05,10264152,1.688,0.004,365,31.9,28.6,83,0.0
2023-04-14T18:06:59Z,04/14/23 14:06,10264163,2.0170000000000003,0.008,369,32.1,28.1,83,0.0
2023-04-14T18:07:59Z,04/14/23 14:07,10264174,1.951,0.002,374,32.4,27.8,83,0.0
2023-04-14T18:08:59Z,04/14/23 14:08,10264185,1.902,0.0,359,32.5,27.9,83,0.0
2023-04-14T18:09:59Z,04/14/23 14:09,10264196,1.955,0.004,355,32.8,28.0,83,0.0
2023-04-14T18:10:59Z,04/14/23 14:10,10264207,2.222,0.004,358,33.0,27.1,83,0.0
2023-04-14T18:11:59Z,04/14/23 14:11,10264218,1.735,0.014000000000000002,355,33.1,26.7,83,0.0
2023-04-14T18:12:59Z,04/14/23 14:12,10264229,2.159,0.01,350,33.2,26.7,83,0.0
2023-04-14T18:13:59Z,04/14/23 14:13,10264240,1.8370000000000002,0.008,329,33.5,26.9,83,0.0
2023-04-14T18:14:59Z,04/14/23 14:14,10264251,2.074,0.002,373,33.7,26.8,83,0.0
2023-04-14T18:15:59Z,04/14/23 14:15,10264262,2.118,0.006,406,34.0,26.5,83,0.0
2023-04-14T18:16:59Z,04/14/23 14:16,10264273,2.011,0.002,394,34.3,25.9,83,0.0
2023-04-14T18:17:59Z,04/14/23 14:17,10264284,2.011,0.002,393,34.7,25.7,83,0.0
2023-04-14T18:18:59Z,04/14/23 14:18,10264295,1.988,0.004,403,35.5,25.3,83,0.0
2023-04-14T18:19:59Z,04/14/23 14:19,10264306,1.9809999999999999,0.002,402,37.1,25.0,83,0.0
2023-04-14T18:20:59Z,04/14/23 14:20,10264317,2.0789999999999997,0.0,401,39.1,24.6,83,0.0
2023-04-14T18:21:59Z,04/14/23 14:21,10264328,1.998,0.006,421,41.2,24.2,83,0.0
2023-04-14T18:22:59Z,04/14/23 14:22,10264339,1.816,0.002,425,43.1,23.1,83,0.0
2023-04-14T18:23:59Z,04/14/23 14:23,10264350,2.032,0.008,442,45.0,22.3,83,0.0
2023-04-14T18:24:59Z,04/14/23 14:24,10264361,1.877,0.004,456,46.6,21.2,83,0.0
2023-04-14T18:25:59Z,04/14/23 14:25,10264372,1.8670000000000002,0.002,495,48.2,20.6,83,0.0
2023-04-14T18:26:59Z,04/14/23 14:26,10264383,1.7850000000000001,0.006,518,49.6,20.1,83,0.0
2023-04-14T18:27:59Z,04/14/23 14:27,10264394,2.032,0.008,510,50.8,19.3,83,0.0
2023-04-14T18:28:59Z,04/14/23 14:28,10264405,1.7260000000000002,0.002,500,51.9,18.8,83,0.0
2023-04-14T18:29:59Z,04/14/23 14:29,10264416,1.8850000000000002,0.008,514,53.0,18.4,83,0.0
2023-04-14T18:30:59Z,04/14/23 14:30,10264427,1.7600000000000002,0.01,537,53.9,17.9,83,0.0
2023-04-14T18:31:59Z,04/14/23 14:31,10264438,1.704,0.0,538,54.8,17.5,83,0.0
2023-04-14T18:32:59Z,04/14/23 14:32,10264449,1.92,0.0,522,55.6,17.5,83,0.0
2023-04-14T18:33:59Z,04/14/23 14:33,10264460,1.906,0.002,511,56.4,17.1,83,0.0
2023-04-14T18:34:59Z,04/14/23 14:34,10264471,1.832,0.004,568,57.1,17.1,83,0.0
2023-04-14T18:35:59Z,04/14/23 14:35,10264483,1.985,0.004,561,57.7,16.9,83,0.0
2023-04-14T18:36:59Z,04/14/23 14:36,10264495,1.86,0.0,533,58.3,16.8,83,0.0
2023-04-14T18:37:59Z,04/14/23 14:37,10264507,1.9280000000000002,0.01,559,58.7,16.6,83,0.0
2023-04-14T18:38:59Z,04/14/23 14:38,10264519,1.8370000000000002,0.002,585,59.2,16.2,83,0.0
2023-04-14T18:39:59Z,04/14/23 14:39,10264531,2.028,0.0,566,59.5,15.9,83,0.0
2023-04-14T18:40:59Z,04/14/23 14:40,10264543,1.816,0.002,574,59.7,15.6,83,0.0
2023-04-14T18:41:59Z,04/14/23 14:41,10264555,1.8219999999999998,0.002,576,60.1,15.7,83,0.0
2023-04-14T18:42:59Z,04/14/23 14:42,10264567,1.8519999999999999,0.002,576,60.6,15.8,83,0.0
2023-04-14T18:43:59Z,04/14/23 14:43,10264579,1.9469999999999998,0.0,578,61.0,15.4,83,0.0
2023-04-14T18:44:59Z,04/14/23 14:44,10264591,1.761,0.0,563,61.4,15.4,83,0.0
2023-04-14T18:45:59Z,04/14/23 14:45,10264603,1.7570000000000001,0.004,629,61.8,14.9,83,0.0
2023-04-14T18:46:59Z,04/14/23 14:46,10264615,2.029,0.002,618,62.1,14.9,83,0.0
2023-04-14T18:47:59Z,04/14/23 14:47,10264627,1.905,0.006,593,62.5,15.0,83,0.0
2023-04-14T18:48:59Z,04/14/23 14:48,10264639,1.855,0.002,625,62.7,14.6,83,0.0
2023-04-14T18:49:59Z,04/14/23 14:49,10264651,1.716,0.0,641,62.9,14.4,83,0.0
2023-04-14T18:50:59Z,04/14/23 14:50,10264662,1.6620000000000001,0.006,640,63.1,14.2,83,0.0
2023-04-14T18:51:59Z,04/14/23 14:51,10264673,1.826,0.004,667,63.3,14.1,83,0.0
2023-04-14T18:52:59Z,04/14/23 14:52,10264684,2.058,0.0,725,63.6,13.9,83,0.0
2023-04-14T18:53:59Z,04/14/23 14:53,10264695,1.889,0.004,795,63.7,13.9,83,0.0
2023-04-14T18:54:59Z,04/14/23 14:54,10264706,1.738,0.002,760,63.9,13.8,83,0.0
2023-04-14T18:55:59Z,04/14/23 14:55,10264717,1.718,0.004,795,64.0,13.8,83,0.0
2023-04-14T18:56:59Z,04/14/23 14:56,10264728,2.018,0.004,766,64.1,13.6,83,0.0
2023-04-14T18:57:59Z,04/14/23 14:57,10264739,1.716,0.0,797,64.2,13.4,83,0.0
2023-04-14T18:58:59Z,04/14/23 14:58,10264750,1.7399999999999998,0.0,814,64.3,13.3,83,0.0
2023-04-14T18:59:59Z,04/14/23 14:59,10264761,1.7890000000000001,0.002,799,64.3,13.3,83,0.0
2023-04-14T19:00:59Z,04/14/23 15:00,10264772,2.077,0.002,879,64.3,13.2,83,0.0
2023-04-14T19:01:59Z,04/14/23 15:01,10264783,1.971,0.0,855,64.4,13.2,83,0.0
2023-04-14T19:02:59Z,04/14/23 15:02,10264794,1.781,0.004,853,64.5,13.2,83,0.0
2023-04-14T19:03:59Z,04/14/23 15:03,10264805,1.938,0.006,862,64.6,13.2,83,0.0
2023-04-14T19:04:59Z,04/14/23 15:04,10264816,2.072,0.004,888,64.7,13.1,83,0.0
2023-04-14T19:05:59Z,04/14/23 15:05,10264827,1.873,0.002,904,64.9,13.2,83,0.0
2023-04-14T19:06:59Z,04/14/23 15:06,10264838,1.9100000000000001,0.004,888,64.9,13.0,83,0.0
2023-04-14T19:07:59Z,04/14/23 15:07,10264849,1.784,0.004,964,64.9,13.0,83,0.0
2023-04-14T19:08:59Z,04/14/23 15:08,10264860,2.093,0.01,877,65.0,13.0,83,0.0
2023-04-14T19:09:59Z,04/14/23 15:09,10264871,2.143,0.002,964,65.0,12.9,83,0.0
2023-04-14T19:10:59Z,04/14/23 15:10,10264882,2.148,0.0,944,65.0,12.7,83,0.0
2023-04-14T19:11:59Z,04/14/23 15:11,10264893,2.119,0.002,932,65.2,12.7,83,0.0
2023-04-14T19:12:59Z,04/14/23 15:12,10264904,2.0469999999999997,0.002,1081,65.4,12.8,83,0.0
2023-04-14T19:13:59Z,04/14/23 15:13,10264915,2.1079999999999997,0.004,1036,65.4,13.0,83,0.0
2023-04-14T19:14:59Z,04/14/23 15:14,10264926,1.786,0.002,1052,65.4,13.1,83,0.0
2023-04-14T19:15:59Z,04/14/23 15:15,10264937,1.909,0.002,1115,65.5,13.0,83,0.0
2023-04-14T19:16:59Z,04/14/23 15:16,10264948,2.112,0.006,1094,65.5,12.8,83,0.0
2023-04-14T19:17:59Z,04/14/23 15:17,10264959,1.886,0.004,1088,65.5,12.7,83,0.0
2023-04-14T19:18:59Z,04/14/23 15:18,10264971,2.225,0.004,1065,65.6,12.7,83,0.0
2023-04-14T19:19:59Z,04/14/23 15:19,10264983,2.798,0.004,1074,65.6,12.6,83,0.0
2023-04-14T19:20:59Z,04/14/23 15:20,10264994,2.112,0.0,1158,65.5,12.4,83,0.0
2023-04-14T19:21:59Z,04/14/23 15:21,10265005,2.2350000000000003,0.0,1129,65.5,12.4,83,0.0
2023-04-14T19:22:59Z,04/14/23 15:22,10265016,2.303,0.004,1174,65.5,12.5,83,0.0
2023-04-14T19:23:59Z,04/14/23 15:23,10265027,2.779,0.002,1097,65.5,12.5,83,0.0
2023-04-14T19:24:59Z,04/14/23 15:24,10265038,2.13,0.0,1210,65.5,12.3,83,0.0
2023-04-14T19:25:59Z,04/14/23 15:25,10265049,2.3129999999999997,0.0,1188,65.4,12.3,83,0.0
2023-04-14T19:26:59Z,04/14/23 15:26,10265060,1.811,0.004,1081,65.5,12.3,83,0.0
2023-04-14T19:27:59Z,04/14/23 15:27,10265071,1.97,0.004,1058,65.4,12.3,83,0.0
2023-04-14T19:28:59Z,04/14/23 15:28,10265082,1.7109999999999999,0.002,1117,65.4,12.1,83,0.0
2023-04-14T19:29:59Z,04/14/23 15:29,10265093,2.064,0.006,1099,65.4,12.3,83,0.0
2023-04-14T19:30:59Z,04/14/23 15:30,10265105,1.9769999999999999,0.006,1076,65.4,12.5,83,0.0